Location: Bidwell Hollow
(37.7387°N, 90.1707°W)
Time: 04:47:35
(UTC+00:00)

Explorer 11/Cluster Stage 4 - Pass Details

Date: 10 May 2026
Orbit: 463 x 1173 km, 28.8° (Epoch: 11 June)

Event Time Altitude Azimuth Distance (km) Brightness Sun altitude
Exits shadow 10:18:52 - 233° (SW) 1,788 7.8 -7.3°
Reaches altitude 10° 10:19:11 10° 230° (SW) 1,711 7.7 -7.3°
Maximum altitude 10:21:15 14° 197° (SSW) 1,430 7.5 -6.9°
Drops below altitude 10° 10:23:14 10° 164° (SSE) 1,623 8.1 -6.6°
Sets 10:26:09 0° 137° (SE) 2,468 9.4 -6.0°
